Home   Weather   Basel   Past weeks

Flag for Switzerland Past Weather in Basel, Basel-Stadt, Switzerland — Yesterday and Last 2 Weeks

Now
68 °F

Passing clouds.


Feels Like: 68 °F
Forecast: 49 / 73 °F
Wind: 7 mph from West

Location: Bale-Mulhouse

Current Time: Aug 19, 2017 at 9:10:28 pm

Latest Report: Aug 19, 2017 at 8:00 pm


Visibility: 25 mi

Pressure: 30.14 "Hg

Humidity: 51%

Dew Point: 49 °F

Location of BaselLocation

Past Weather in Basel — Graph

°F

Basel Temperature Yesterday

Maximum temperature yesterday: 86 °F (at 3:00 pm)
Minimum temperature yesterday: 62 °F (at 11:00 pm)
Average temperature yesterday: 70 °F

High & Low Weather Summary for the Past Weeks

 TemperatureHumidityPressure
High86 °F (Aug 15, 4:00 pm)98% (Aug 14, 6:00 am)30.19 "Hg (Aug 14, 6:00 am)
Low50 °F (Aug 7, 6:00 am)32% (Aug 7, 7:00 pm)29.83 "Hg (Aug 8, 6:00 am)
Average67 °F74%30.07 "Hg
* Reported Aug 4 7:00 pm — Aug 19 7:00 pm, Basel. Weather by CustomWeather, © 2017

Note: Actual official high and low records may vary slightly from our data, if they occured in-between our weather recording intervals... More about our weather records

Advertising

Basel Weather History for the Previous 24 Hours

Scroll right to see more
 ConditionsComfort  
Time TempWeatherWind HumidityBarometerVisibility
7:00 pm
Sat, Aug 19
71 °FPassing clouds.9 mph42%30.12 "Hg25 mi
6:00 pm72 °FPassing clouds.13 mph44%30.11 "Hg25 mi
5:00 pm72 °FScattered clouds.13 mph45%30.11 "Hg25 mi
4:00 pm73 °FScattered clouds.12 mph51%30.10 "Hg25 mi
3:00 pm72 °FScattered clouds.13 mph53%30.11 "Hg25 mi
2:00 pm71 °FScattered clouds.10 mph53%30.11 "Hg25 mi
1:00 pm70 °FScattered clouds.10 mph54%30.11 "Hg25 mi
12:00 pm69 °FScattered clouds.9 mph63%30.12 "Hg25 mi
11:00 am67 °FPartly sunny.7 mph70%30.13 "Hg25 mi
10:00 am64 °FPartly sunny.8 mph84%30.14 "Hg9 mi
9:00 am63 °FPartly sunny.7 mph90%30.12 "Hg9 mi
8:00 am61 °FSprinkles. Overcast.5 mph93%30.11 "Hg4 mi
7:00 am59 °FOvercast.3 mph91%30.10 "Hg12 mi
6:00 am60 °FPassing clouds.5 mph88%30.09 "Hg37 mi
5:00 am62 °FPassing clouds.3 mph86%30.10 "Hg37 mi
4:00 am62 °FOvercast.5 mph88%30.09 "Hg37 mi
3:00 am61 °FOvercast.7 mph91%30.09 "Hg37 mi
2:00 am61 °FCool.2 mph92%30.08 "Hg37 mi
1:00 am62 °FPassing clouds.No wind90%30.10 "Hg37 mi
12:00 am63 °FOvercast.3 mph89%30.10 "Hg37 mi
11:00 pm
Fri, Aug 18
62 °FOvercast.3 mph92%30.09 "Hg37 mi
10:00 pm63 °FPassing clouds.6 mph90%30.07 "Hg37 mi
9:00 pm64 °FOvercast.3 mph89%30.08 "Hg37 mi
Weather by CustomWeather, © 2017

See weather overviewHow to use our weather pages